2020/07/28 23:32:10+0000,-42.04,-49.69,-37.72,-48.83,-55.47,-56.92
2020/07/28 23:33:02+0000,-42.40,-48.14,-38.11,-48.22,-55.29,-56.27
2020/07/28 23:33:54+0000,-42.52,-47.59,-27.26,-49.86,-55.21,-56.97
2020/07/28 23:34:46+0000,-42.20,-47.83,-37.79,-49.59,-55.27,-56.94
2020/07/28 23:35:38+0000,-42.34,-49.45,-37.84,-49.07,-55.31,-56.92
2020/07/28 23:36:30+0000,-42.79,-47.20,-38.04,-48.91,-56.29,-56.84
2020/07/28 23:37:22+0000,-42.65,-47.66,-37.87,-49.26,-55.46,-56.34
2020/07/28 23:38:14+0000,-42.41,-47.34,-37.64,-49.69,-55.32,-56.97
2020/07/28 23:39:06+0000,-42.14,-47.66,-37.23,-49.28,-55.35,-56.57
2020/07/28 23:39:58+0000,-42.34,-48.11,-37.35,-48.94,-55.04,-56.88
2020/07/28 23:40:50+0000,-41.84,-47.27,-37.53,-48.64,-54.83,-56.95
2020/07/28 23:41:48+0000,-40.38,-48.01,-37.47,-50.04,-54.46,-56.44
2020/07/28 23:42:40+0000,-42.26,-47.79,-26.94,-49.38,-54.86,-56.98
2020/07/28 23:43:32+0000,-42.47,-47.80,-26.65,-49.34,-54.96,-56.60
2020/07/28 23:44:24+0000,-41.71,-48.46,-38.14,-49.28,-54.81,-55.73
2020/07/28 23:45:16+0000,-42.06,-47.25,-36.98,-49.18,-55.10,-56.89
2020/07/28 23:46:08+0000,-41.38,-47.18,-26.89,-50.15,-55.48,-56.29
2020/07/28 23:47:00+0000,-41.48,-47.66,-37.00,-48.72,-55.41,-56.47
2020/07/28 23:47:52+0000,-41.45,-46.79,-35.99,-48.88,-55.05,-56.21
2020/07/28 23:48:44+0000,-41.63,-47.97,-36.60,-48.92,-55.30,-56.45
2020/07/28 23:49:36+0000,-41.62,-49.61,-26.73,-49.56,-55.48,-56.78
2020/07/28 23:50:28+0000,-41.49,-49.03,-37.30,-48.75,-55.44,-56.61
2020/07/28 23:51:28+0000,-41.27,-47.94,-37.37,-48.46,-55.85,-55.90
2020/07/28 23:52:20+0000,-41.62,-48.66,-36.24,-49.07,-55.14,-55.80
2020/07/28 23:53:12+0000,-42.04,-47.89,-26.97,-50.64,-55.26,-56.72
2020/07/28 23:54:04+0000,-41.89,-49.26,-26.77,-49.06,-55.63,-56.33
2020/07/28 23:54:56+0000,-41.49,-47.66,-38.56,-49.47,-55.51,-56.79
2020/07/28 23:55:48+0000,-42.32,-48.77,-37.46,-48.73,-55.12,-56.48
2020/07/28 23:56:40+0000,-42.03,-47.85,-26.77,-47.48,-55.00,-56.20
2020/07/28 23:57:32+0000,-41.72,-49.16,-26.69,-49.05,-55.60,-56.12
2020/07/28 23:58:24+0000,-40.78,-47.22,-35.82,-48.75,-55.63,-55.88
2020/07/28 23:59:16+0000,-40.50,-46.77,-35.54,-48.15,-55.45,-55.53
2020/07/29 00:00:08+0000,-41.02,-47.91,-26.62,-49.21,-55.95,-56.23
2020/07/29 00:01:13+0000,-41.01,-48.47,-34.63,-48.49,-55.04,-56.36
2020/07/29 00:02:05+0000,-40.90,-46.99,-35.33,-48.74,-56.03,-56.06
2020/07/29 00:02:57+0000,-41.47,-48.28,-38.09,-50.03,-55.87,-56.02
2020/07/29 00:03:49+0000,-41.48,-48.47,-26.92,-48.94,-55.65,-55.86
2020/07/29 00:04:41+0000,-40.93,-48.81,-38.45,-50.13,-56.38,-55.82
2020/07/29 00:05:33+0000,-40.73,-47.43,-38.05,-50.68,-55.85,-56.07
2020/07/29 00:06:25+0000,-41.26,-47.74,-27.00,-50.02,-55.10,-55.76
2020/07/29 00:07:17+0000,-41.57,-47.65,-26.63,-49.81,-55.89,-56.36
2020/07/29 00:08:09+0000,-40.39,-48.68,-38.34,-50.18,-56.20,-55.52
2020/07/29 00:09:01+0000,-41.08,-49.64,-37.40,-49.52,-55.78,-55.82
2020/07/29 00:09:54+0000,-41.85,-47.84,-27.06,-49.12,-55.86,-56.41
2020/07/29 00:10:46+0000,-40.92,-49.32,-26.68,-49.96,-55.49,-55.53
2020/07/29 00:11:45+0000,-40.87,-49.15,-26.61,-49.90,-55.77,-55.20
2020/07/29 00:12:37+0000,-39.95,-45.66,-36.69,-49.56,-55.66,-55.66
2020/07/29 00:13:29+0000,-40.65,-46.16,-38.21,-48.68,-55.10,-55.65
2020/07/29 00:14:21+0000,-40.60,-45.30,-26.84,-48.00,-55.65,-56.05
2020/07/29 00:15:13+0000,-40.84,-46.91,-36.32,-50.58,-55.88,-56.01
2020/07/29 00:16:05+0000,-40.91,-46.20,-37.19,-50.29,-55.91,-55.87
2020/07/29 00:16:57+0000,-40.57,-45.73,-37.37,-48.66,-55.64,-55.81
2020/07/29 00:17:50+0000,-40.60,-45.63,-26.93,-49.25,-55.00,-56.02
2020/07/29 00:18:42+0000,-41.63,-45.60,-37.00,-50.10,-55.53,-56.28
2020/07/29 00:19:34+0000,-40.44,-46.10,-36.94,-50.28,-55.90,-56.10
2020/07/29 00:20:26+0000,-41.14,-46.51,-26.66,-49.81,-55.17,-56.05
2020/07/29 00:21:23+0000,-41.38,-47.03,-26.70,-48.99,-55.47,-55.57
2020/07/29 00:22:15+0000,-41.25,-46.80,-26.63,-49.22,-54.56,-56.21
2020/07/29 00:23:07+0000,-39.89,-46.43,-37.77,-49.45,-55.90,-56.78
2020/07/29 00:23:59+0000,-40.98,-47.75,-36.54,-48.99,-54.45,-56.23
2020/07/29 00:24:52+0000,-40.53,-47.69,-36.60,-49.13,-54.93,-56.25
2020/07/29 00:25:44+0000,-41.63,-46.36,-36.23,-46.24,-55.33,-55.99
2020/07/29 00:26:36+0000,-40.75,-47.46,-37.83,-49.53,-55.68,-55.81
2020/07/29 00:27:28+0000,-40.95,-46.93,-36.70,-50.53,-55.26,-56.05
2020/07/29 00:28:20+0000,-40.91,-46.91,-37.69,-50.03,-55.18,-56.18
2020/07/29 00:29:12+0000,-39.83,-46.79,-37.38,-49.73,-55.43,-56.23
2020/07/29 00:30:04+0000,-41.42,-47.68,-33.98,-46.20,-55.06,-55.82
2020/07/29 00:31:04+0000,-41.59,-46.88,-35.14,-47.97,-55.43,-56.13
2020/07/29 00:31:56+0000,-41.40,-48.00,-37.70,-50.01,-54.68,-56.22
2020/07/29 00:32:48+0000,-41.79,-48.32,-36.21,-50.06,-55.53,-55.71
2020/07/29 00:33:40+0000,-41.15,-48.25,-37.11,-47.76,-55.12,-56.04
2020/07/29 00:34:32+0000,-40.47,-46.70,-33.55,-48.93,-55.97,-56.16
2020/07/29 00:35:24+0000,-40.07,-46.03,-26.64,-48.53,-55.40,-55.87
2020/07/29 00:36:16+0000,-40.32,-47.60,-34.65,-47.70,-55.66,-55.95
2020/07/29 00:37:08+0000,-40.64,-46.99,-34.73,-48.16,-54.82,-55.66
2020/07/29 00:38:00+0000,-40.73,-46.56,-34.97,-47.90,-55.89,-55.87
2020/07/29 00:38:52+0000,-40.31,-47.18,-33.98,-48.25,-55.22,-56.01
2020/07/29 00:39:44+0000,-41.06,-46.54,-34.81,-47.66,-55.66,-56.08
2020/07/29 00:40:36+0000,-40.73,-46.66,-37.27,-67.55,-55.24,-55.98
2020/07/29 00:41:36+0000,-41.14,-46.57,-34.87,-47.98,-55.36,-55.81
2020/07/29 00:42:28+0000,-41.34,-46.52,-35.04,-47.76,-54.94,-56.21
2020/07/29 00:43:20+0000,-41.62,-47.14,-27.01,-48.21,-55.71,-55.81
2020/07/29 00:44:12+0000,-41.28,-46.79,-34.70,-47.95,-55.65,-55.52
2020/07/29 00:45:04+0000,-42.12,-47.12,-35.74,-47.65,-55.55,-56.00
2020/07/29 00:45:56+0000,-41.92,-47.27,-26.52,-49.49,-55.35,-55.60
2020/07/29 00:46:48+0000,-41.64,-46.52,-26.90,-48.95,-56.01,-56.08
2020/07/29 00:47:41+0000,-40.99,-47.37,-36.81,-48.65,-55.41,-56.05
2020/07/29 00:48:33+0000,-40.90,-46.52,-36.68,-49.51,-55.03,-56.04
2020/07/29 00:49:25+0000,-41.89,-47.50,-26.89,-48.64,-55.45,-56.20
2020/07/29 00:50:17+0000,-41.64,-47.28,-26.65,-49.34,-56.11,-55.99
2020/07/29 00:51:16+0000,-41.42,-47.43,-26.79,-49.29,-56.21,-56.47
2020/07/29 00:52:08+0000,-40.78,-47.61,-36.66,-48.39,-55.24,-56.13
2020/07/29 00:53:00+0000,-41.15,-46.98,-37.14,-48.35,-55.60,-55.79
2020/07/29 00:53:53+0000,-40.90,-47.37,-27.02,-47.47,-55.63,-56.90
2020/07/29 00:54:45+0000,-41.62,-48.88,-37.06,-48.12,-55.41,-56.15
2020/07/29 00:55:37+0000,-41.53,-46.52,-34.52,-48.82,-55.27,-55.88
2020/07/29 00:56:29+0000,-41.28,-47.64,-34.41,-49.47,-55.75,-56.07
2020/07/29 00:57:21+0000,-41.18,-48.56,-35.26,-48.45,-55.39,-56.02
2020/07/29 00:58:13+0000,-40.82,-48.47,-35.55,-49.36,-53.43,-55.84
2020/07/29 00:59:05+0000,-40.45,-46.43,-36.27,-49.06,-55.53,-56.10
2020/07/29 00:59:57+0000,-40.73,-45.99,-34.31,-48.72,-55.21,-55.51
2020/07/29 01:00:49+0000,-41.19,-45.07,-36.33,-48.49,-55.53,-56.28
2020/07/29 01:01:54+0000,-40.10,-45.00,-36.27,-47.31,-54.68,-56.23
2020/07/29 01:02:46+0000,-41.09,-46.38,-36.16,-48.18,-54.94,-56.29
2020/07/29 01:03:38+0000,-40.53,-46.06,-37.76,-48.93,-54.14,-56.18
2020/07/29 01:04:31+0000,-41.04,-47.29,-34.59,-47.71,-55.08,-56.41
2020/07/29 01:05:23+0000,-41.50,-47.49,-34.12,-49.09,-54.68,-56.20
2020/07/29 01:06:15+0000,-40.59,-48.16,-34.48,-48.89,-55.06,-55.93
2020/07/29 01:07:07+0000,-41.89,-47.81,-34.39,-48.55,-55.80,-56.09
2020/07/29 01:07:59+0000,-40.77,-48.21,-34.36,-48.55,-53.87,-56.03
2020/07/29 01:08:51+0000,-41.16,-48.54,-35.92,-49.25,-55.12,-56.39
2020/07/29 01:09:43+0000,-41.32,-48.34,-33.46,-48.03,-55.20,-55.92
2020/07/29 01:10:35+0000,-40.90,-49.29,-34.26,-49.17,-55.46,-56.23
2020/07/29 01:11:34+0000,-40.98,-49.36,-34.89,-48.44,-54.55,-56.14
2020/07/29 01:12:26+0000,-41.49,-48.35,-37.39,-49.18,-55.42,-56.25
2020/07/29 01:13:18+0000,-41.42,-47.63,-34.63,-48.12,-55.97,-56.60
2020/07/29 01:14:10+0000,-41.61,-49.50,-34.20,-48.68,-54.89,-56.43
2020/07/29 01:15:03+0000,-40.84,-46.60,-33.83,-48.79,-55.21,-56.47
2020/07/29 01:15:55+0000,-41.02,-48.86,-34.29,-48.99,-55.38,-56.41
2020/07/29 01:16:47+0000,-41.27,-49.68,-34.41,-48.41,-54.98,-56.66
2020/07/29 01:17:39+0000,-41.64,-49.93,-34.70,-49.04,-55.12,-56.39
2020/07/29 01:18:31+0000,-41.39,-49.85,-34.18,-48.23,-55.52,-56.91
2020/07/29 01:19:23+0000,-39.93,-50.51,-34.12,-48.84,-55.39,-56.18
2020/07/29 01:20:15+0000,-40.92,-50.41,-34.50,-48.86,-55.67,-56.82
2020/07/29 01:21:15+0000,-41.43,-50.21,-35.11,-49.11,-55.41,-56.19
2020/07/29 01:22:07+0000,-41.37,-51.24,-34.09,-48.74,-55.18,-56.48
2020/07/29 01:22:59+0000,-41.71,-50.35,-34.02,-47.96,-54.65,-56.91
2020/07/29 01:23:51+0000,-40.68,-51.41,-34.44,-47.57,-55.04,-56.72
2020/07/29 01:24:43+0000,-40.17,-50.39,-34.20,-47.30,-55.09,-56.29
2020/07/29 01:25:35+0000,-40.52,-49.99,-34.11,-49.59,-55.20,-56.43
2020/07/29 01:26:27+0000,-40.43,-50.00,-34.62,-48.60,-55.21,-56.75
2020/07/29 01:27:19+0000,-41.35,-51.18,-34.07,-48.38,-54.81,-55.78
2020/07/29 01:28:11+0000,-41.48,-50.80,-33.72,-48.31,-54.55,-56.80
2020/07/29 01:29:03+0000,-41.30,-50.40,-33.73,-48.18,-54.12,-56.27
2020/07/29 01:29:56+0000,-41.53,-50.03,-35.28,-47.91,-55.63,-55.94
2020/07/29 01:30:48+0000,-40.76,-50.59,-34.76,-48.75,-55.92,-56.49
2020/07/29 01:31:45+0000,-40.99,-50.53,-34.01,-48.57,-54.72,-56.58
2020/07/29 01:32:37+0000,-40.20,-52.00,-33.55,-49.12,-54.94,-56.35
2020/07/29 01:33:29+0000,-41.48,-49.64,-34.01,-48.42,-54.88,-55.92
2020/07/29 01:34:21+0000,-40.79,-50.40,-33.05,-48.11,-55.04,-56.06
2020/07/29 01:35:14+0000,-40.05,-50.78,-33.84,-47.45,-55.51,-55.63
2020/07/29 01:36:06+0000,-40.23,-50.89,-34.47,-48.41,-55.32,-56.35
2020/07/29 01:36:58+0000,-40.78,-49.38,-34.09,-48.27,-54.85,-56.25
2020/07/29 01:37:50+0000,-40.74,-50.06,-34.58,-49.80,-55.11,-55.76
2020/07/29 01:38:42+0000,-40.85,-50.96,-34.48,-49.39,-55.13,-55.98
2020/07/29 01:39:34+0000,-41.11,-50.10,-34.87,-49.64,-55.41,-56.01
2020/07/29 01:40:26+0000,-40.83,-50.35,-34.40,-49.16,-56.26,-55.65
2020/07/29 01:41:24+0000,-41.12,-49.28,-34.37,-49.12,-55.92,-56.24
2020/07/29 01:42:17+0000,-41.12,-50.54,-34.46,-49.29,-55.13,-56.39
2020/07/29 01:43:09+0000,-41.27,-51.14,-34.78,-48.37,-55.46,-56.24
2020/07/29 01:44:01+0000,-40.15,-50.11,-35.34,-49.02,-55.10,-56.21
2020/07/29 01:44:53+0000,-40.89,-50.77,-33.41,-49.17,-55.49,-56.25
2020/07/29 01:45:45+0000,-41.25,-50.47,-37.05,-50.67,-55.66,-56.15
2020/07/29 01:46:37+0000,-39.66,-51.05,-37.23,-51.00,-55.50,-56.19
2020/07/29 01:47:29+0000,-40.50,-49.75,-38.01,-48.98,-54.84,-56.28
2020/07/29 01:48:21+0000,-41.26,-49.94,-37.15,-49.41,-55.02,-56.82
2020/07/29 01:49:13+0000,-40.16,-50.39,-37.27,-50.29,-55.13,-56.13
2020/07/29 01:50:06+0000,-40.78,-50.21,-37.58,-49.68,-55.49,-56.45
2020/07/29 01:51:03+0000,-40.72,-50.72,-36.39,-49.01,-55.38,-56.40
2020/07/29 01:51:55+0000,-40.68,-50.74,-36.73,-49.55,-55.32,-56.03
2020/07/29 01:52:47+0000,-39.59,-50.78,-34.15,-49.65,-54.90,-55.83
2020/07/29 01:53:39+0000,-40.55,-47.79,-33.65,-49.56,-54.98,-55.88
2020/07/29 01:54:31+0000,-40.47,-47.18,-33.42,-48.54,-55.21,-55.95
2020/07/29 01:55:23+0000,-40.33,-48.88,-33.33,-48.38,-54.78,-55.80
2020/07/29 01:56:15+0000,-38.74,-47.47,-33.58,-49.30,-55.26,-55.98
2020/07/29 01:57:07+0000,-40.43,-47.31,-33.99,-49.25,-55.03,-56.37
2020/07/29 01:57:59+0000,-41.38,-47.15,-34.05,-48.89,-54.62,-55.53
2020/07/29 01:58:51+0000,-39.90,-47.12,-33.48,-47.06,-54.72,-56.11
2020/07/29 01:59:44+0000,-40.37,-47.95,-33.78,-48.98,-55.53,-55.62
2020/07/29 02:00:36+0000,-40.88,-46.67,-33.60,-48.75,-54.07,-56.07
2020/07/29 02:01:39+0000,-40.86,-47.17,-33.92,-49.53,-54.95,-56.20
2020/07/29 02:02:31+0000,-41.83,-47.65,-33.70,-47.23,-54.50,-55.68
2020/07/29 02:03:23+0000,-41.12,-47.97,-34.22,-48.17,-53.60,-55.76
2020/07/29 02:04:15+0000,-41.18,-48.25,-34.10,-49.42,-54.41,-55.82
2020/07/29 02:05:08+0000,-41.54,-48.13,-35.69,-50.75,-54.22,-56.19
2020/07/29 02:06:00+0000,-41.12,-47.42,-37.27,-48.31,-53.80,-56.01
2020/07/29 02:06:52+0000,-40.60,-49.92,-34.17,-49.09,-53.34,-55.87
2020/07/29 02:07:44+0000,-41.58,-47.21,-34.04,-48.06,-54.36,-55.97
2020/07/29 02:08:36+0000,-41.69,-49.39,-36.57,-48.76,-54.04,-55.75
2020/07/29 02:09:28+0000,-42.55,-47.15,-34.19,-48.74,-54.71,-55.79
2020/07/29 02:10:20+0000,-41.53,-48.16,-34.16,-47.94,-54.70,-55.80
2020/07/29 02:11:25+0000,-41.55,-48.09,-33.93,-48.75,-53.59,-56.51
2020/07/29 02:12:17+0000,-41.51,-46.40,-34.20,-48.98,-54.35,-56.05
2020/07/29 02:13:09+0000,-42.01,-46.81,-33.98,-48.92,-53.70,-55.95
2020/07/29 02:14:01+0000,-40.59,-48.63,-33.61,-49.75,-55.10,-55.63
2020/07/29 02:14:53+0000,-41.62,-48.42,-34.27,-48.97,-54.24,-56.48
2020/07/29 02:15:45+0000,-40.44,-47.07,-34.04,-48.14,-54.73,-56.52
2020/07/29 02:16:37+0000,-39.99,-46.53,-34.21,-48.83,-55.10,-55.90
2020/07/29 02:17:29+0000,-40.46,-47.40,-34.54,-47.93,-54.06,-56.38
2020/07/29 02:18:21+0000,-40.75,-46.97,-33.93,-48.74,-54.74,-55.69
2020/07/29 02:19:13+0000,-41.14,-46.89,-33.78,-48.45,-54.54,-55.75
2020/07/29 02:20:06+0000,-39.88,-47.42,-34.73,-48.92,-54.07,-56.05
2020/07/29 02:21:08+0000,-41.01,-46.61,-33.94,-48.78,-54.69,-56.13
2020/07/29 02:22:00+0000,-39.53,-47.62,-33.89,-48.77,-54.34,-56.01
2020/07/29 02:22:52+0000,-41.10,-48.98,-34.09,-47.70,-54.30,-56.52
2020/07/29 02:23:44+0000,-40.02,-47.39,-34.05,-47.98,-54.81,-57.00
2020/07/29 02:24:36+0000,-40.20,-49.07,-34.17,-48.53,-54.93,-56.21
2020/07/29 02:25:28+0000,-40.41,-47.14,-34.18,-48.63,-54.69,-56.32
2020/07/29 02:26:20+0000,-40.64,-46.54,-33.62,-47.71,-54.33,-56.27
2020/07/29 02:27:13+0000,-39.85,-45.91,-33.72,-48.77,-54.77,-56.39
2020/07/29 02:28:05+0000,-40.72,-48.03,-33.86,-49.62,-54.26,-55.82
2020/07/29 02:28:57+0000,-41.50,-48.12,-33.95,-48.05,-54.90,-56.26
2020/07/29 02:29:49+0000,-40.81,-46.44,-33.65,-49.24,-55.01,-56.32
2020/07/29 02:30:41+0000,-39.86,-47.89,-34.13,-47.68,-54.90,-55.84
2020/07/29 02:31:40+0000,-40.73,-46.89,-34.23,-48.21,-54.90,-55.64
2020/07/29 02:32:32+0000,-40.94,-48.05,-34.58,-48.67,-55.22,-56.14
2020/07/29 02:33:24+0000,-40.69,-48.49,-33.66,-48.49,-54.99,-55.62
2020/07/29 02:34:16+0000,-40.55,-48.22,-33.77,-48.08,-54.93,-55.74
2020/07/29 02:35:08+0000,-41.12,-47.85,-33.81,-48.64,-55.37,-55.46
2020/07/29 02:36:00+0000,-41.22,-46.89,-33.86,-47.22,-54.97,-56.18
2020/07/29 02:36:52+0000,-39.75,-48.42,-33.61,-48.06,-54.89,-55.52
2020/07/29 02:37:45+0000,-40.58,-46.97,-33.61,-48.33,-54.93,-56.05
2020/07/29 02:38:37+0000,-40.42,-48.83,-33.95,-48.10,-55.29,-56.56
2020/07/29 02:39:29+0000,-41.37,-47.86,-33.95,-46.90,-55.34,-56.35
2020/07/29 02:40:21+0000,-40.99,-46.84,-33.68,-48.64,-55.19,-55.52
2020/07/29 02:41:19+0000,-41.11,-46.13,-33.36,-48.86,-54.89,-55.53
2020/07/29 02:42:11+0000,-41.48,-45.52,-33.55,-45.66,-54.58,-55.27
2020/07/29 02:43:03+0000,-38.21,-46.18,-33.19,-48.27,-55.17,-55.55
2020/07/29 02:43:55+0000,-40.54,-46.67,-33.65,-48.11,-54.62,-56.16
2020/07/29 02:44:47+0000,-40.89,-46.48,-33.81,-47.51,-55.20,-56.00
2020/07/29 02:45:39+0000,-40.37,-46.19,-37.93,-48.99,-54.89,-56.09
2020/07/29 02:46:31+0000,-40.84,-45.94,-35.30,-47.38,-54.93,-55.60
2020/07/29 02:47:24+0000,-39.23,-45.44,-34.58,-47.21,-55.10,-56.33
2020/07/29 02:48:16+0000,-40.21,-42.96,-34.44,-48.79,-55.06,-56.00
2020/07/29 02:49:08+0000,-41.26,-46.07,-34.65,-48.27,-55.29,-55.97
2020/07/29 02:50:00+0000,-41.20,-44.21,-35.32,-46.54,-54.64,-55.53
2020/07/29 02:50:59+0000,-40.32,-44.23,-34.43,-48.05,-55.67,-55.87
2020/07/29 02:51:51+0000,-40.79,-46.37,-34.00,-47.38,-55.01,-55.90
2020/07/29 02:52:43+0000,-40.97,-44.01,-33.42,-47.57,-54.90,-56.14
2020/07/29 02:53:36+0000,-40.96,-44.80,-34.21,-47.92,-55.41,-55.49
2020/07/29 02:54:28+0000,-41.61,-45.00,-33.73,-48.15,-54.85,-55.94
2020/07/29 02:55:20+0000,-41.25,-45.13,-33.13,-48.75,-55.04,-56.01
2020/07/29 02:56:12+0000,-40.45,-45.62,-33.56,-46.60,-55.28,-55.91
2020/07/29 02:57:04+0000,-40.92,-44.62,-33.37,-47.96,-55.08,-56.01
2020/07/29 02:57:56+0000,-40.79,-44.43,-33.80,-48.41,-55.27,-55.66
2020/07/29 02:58:48+0000,-40.56,-44.09,-33.44,-48.27,-54.93,-55.37
2020/07/29 02:59:40+0000,-39.31,-45.32,-33.83,-48.11,-55.11,-55.67
2020/07/29 03:00:32+0000,-40.19,-44.62,-34.09,-48.02,-55.21,-55.91
2020/07/29 03:01:33+0000,-39.89,-45.04,-33.57,-47.76,-54.83,-55.59
2020/07/29 03:02:25+0000,-41.24,-45.30,-33.83,-48.12,-54.87,-55.67
2020/07/29 03:03:17+0000,-39.98,-44.24,-34.27,-47.56,-55.54,-56.36
2020/07/29 03:04:09+0000,-39.56,-46.20,-34.09,-47.88,-54.14,-56.42
2020/07/29 03:05:01+0000,-40.79,-44.92,-34.00,-46.05,-54.47,-55.66
2020/07/29 03:05:53+0000,-40.38,-45.31,-33.59,-48.33,-54.30,-55.52
2020/07/29 03:06:45+0000,-40.95,-45.55,-33.96,-47.66,-55.40,-55.42
2020/07/29 03:07:37+0000,-39.81,-45.46,-34.24,-48.57,-55.69,-55.79
2020/07/29 03:08:29+0000,-39.30,-44.87,-34.74,-48.47,-55.46,-56.02
2020/07/29 03:09:21+0000,-39.84,-46.03,-34.20,-47.05,-54.69,-55.83
2020/07/29 03:10:14+0000,-39.35,-45.71,-34.53,-48.14,-55.02,-55.46
2020/07/29 03:11:14+0000,-39.99,-46.03,-33.76,-45.89,-54.74,-55.54
2020/07/29 03:12:06+0000,-40.35,-46.75,-34.40,-48.36,-54.51,-55.81
2020/07/29 03:12:58+0000,-40.22,-44.22,-34.23,-45.79,-54.72,-55.97
2020/07/29 03:13:50+0000,-40.10,-45.85,-33.90,-48.58,-54.94,-55.79
2020/07/29 03:14:42+0000,-39.70,-46.29,-34.74,-47.70,-53.89,-55.99
2020/07/29 03:15:34+0000,-39.18,-45.25,-34.51,-47.75,-54.72,-55.74
2020/07/29 03:16:26+0000,-38.36,-44.36,-34.23,-47.78,-54.59,-55.41
2020/07/29 03:17:18+0000,-37.85,-45.46,-34.39,-47.89,-54.82,-55.72
2020/07/29 03:18:10+0000,-40.22,-45.73,-34.42,-46.61,-54.20,-55.88
2020/07/29 03:19:02+0000,-39.92,-45.28,-34.31,-48.00,-54.94,-55.79
2020/07/29 03:19:54+0000,-39.22,-44.14,-34.35,-48.10,-54.41,-55.86
2020/07/29 03:20:46+0000,-37.52,-44.84,-33.97,-48.11,-54.67,-55.50
2020/07/29 03:21:45+0000,-38.56,-45.19,-33.68,-45.51,-54.77,-55.60
2020/07/29 03:22:37+0000,-40.48,-44.50,-34.48,-46.47,-54.24,-55.41
2020/07/29 03:23:29+0000,-37.02,-44.40,-35.01,-47.08,-54.43,-56.49
2020/07/29 03:24:21+0000,-39.69,-45.85,-34.09,-47.56,-54.47,-55.89
2020/07/29 03:25:14+0000,-40.80,-45.31,-34.76,-47.18,-54.80,-55.49
2020/07/29 03:26:06+0000,-41.75,-46.83,-34.16,-46.56,-54.25,-55.43
2020/07/29 03:26:58+0000,-41.33,-43.74,-34.48,-48.16,-54.23,-56.61
2020/07/29 03:27:50+0000,-40.79,-44.89,-34.77,-48.73,-54.59,-55.77
2020/07/29 03:28:42+0000,-40.99,-43.80,-35.15,-46.46,-54.23,-56.30
2020/07/29 03:29:34+0000,-39.46,-43.06,-34.37,-48.44,-54.76,-56.13
2020/07/29 03:30:26+0000,-40.03,-42.59,-34.87,-45.68,-54.76,-56.13
2020/07/29 03:31:26+0000,-40.17,-42.98,-34.70,-47.72,-54.78,-56.89
2020/07/29 03:32:18+0000,-41.85,-44.10,-34.38,-46.72,-55.05,-55.94
2020/07/29 03:33:10+0000,-37.48,-44.42,-33.88,-46.86,-54.88,-56.00
2020/07/29 03:34:02+0000,-38.86,-43.14,-33.78,-46.15,-55.51,-55.95
2020/07/29 03:34:54+0000,-41.03,-44.74,-34.61,-45.61,-55.37,-55.71
2020/07/29 03:35:46+0000,-40.56,-44.94,-34.14,-46.36,-55.32,-56.01
2020/07/29 03:36:38+0000,-40.65,-44.60,-34.34,-46.20,-55.25,-56.53
2020/07/29 03:37:30+0000,-40.35,-43.81,-34.67,-47.61,-55.06,-56.28
2020/07/29 03:38:22+0000,-39.84,-46.25,-34.66,-47.72,-55.33,-55.88
2020/07/29 03:39:14+0000,-41.94,-47.47,-34.20,-47.45,-55.76,-56.49
2020/07/29 03:40:06+0000,-42.32,-50.76,-34.83,-48.42,-55.18,-56.13
2020/07/29 03:41:06+0000,-40.48,-46.34,-34.29,-48.87,-55.08,-56.27
2020/07/29 03:41:58+0000,-40.48,-44.24,-34.16,-48.18,-55.38,-55.96
2020/07/29 03:42:50+0000,-40.20,-44.49,-34.12,-48.30,-56.12,-56.15
2020/07/29 03:43:42+0000,-41.46,-43.43,-34.82,-47.35,-55.05,-55.89
2020/07/29 03:44:34+0000,-39.64,-44.70,-34.56,-48.55,-55.26,-55.94
2020/07/29 03:45:26+0000,-41.78,-45.07,-34.49,-47.91,-54.71,-55.78
2020/07/29 03:46:18+0000,-40.39,-43.35,-34.51,-48.40,-54.54,-56.12
2020/07/29 03:47:10+0000,-39.94,-44.39,-34.73,-47.70,-55.06,-55.82
2020/07/29 03:48:02+0000,-35.54,-45.23,-34.18,-48.69,-54.17,-55.94
2020/07/29 03:48:54+0000,-39.81,-44.65,-33.93,-49.02,-54.21,-56.74
2020/07/29 03:49:47+0000,-42.24,-43.72,-34.08,-47.04,-55.48,-56.33
2020/07/29 03:50:39+0000,-39.57,-44.63,-33.45,-48.18,-54.85,-56.31
2020/07/29 03:51:38+0000,-34.98,-46.83,-33.65,-47.97,-53.84,-56.07
2020/07/29 03:52:30+0000,-41.70,-44.89,-34.76,-49.44,-54.94,-56.33
2020/07/29 03:53:22+0000,-40.54,-46.17,-34.72,-48.71,-54.80,-56.24
2020/07/29 03:54:14+0000,-36.98,-42.43,-34.61,-48.19,-56.13,-56.36
2020/07/29 03:55:06+0000,-35.81,-45.15,-34.51,-48.70,-54.64,-56.18
2020/07/29 03:55:58+0000,-39.75,-45.38,-34.29,-49.06,-55.15,-56.06
2020/07/29 03:56:50+0000,-39.72,-44.14,-34.70,-49.35,-54.71,-56.13
2020/07/29 03:57:42+0000,-37.57,-45.94,-34.86,-48.35,-55.05,-55.82
2020/07/29 03:58:34+0000,-36.91,-45.35,-34.43,-48.64,-55.17,-56.59
2020/07/29 03:59:26+0000,-41.86,-45.07,-35.55,-48.93,-56.44,-55.93
2020/07/29 04:00:19+0000,-38.34,-45.43,-34.67,-48.86,-56.64,-56.02
2020/07/29 04:01:19+0000,-41.85,-44.47,-35.38,-48.82,-56.45,-56.25
2020/07/29 04:02:11+0000,-35.36,-44.78,-33.92,-47.95,-56.11,-56.08
2020/07/29 04:03:03+0000,-34.31,-46.42,-34.82,-48.86,-55.22,-57.00
2020/07/29 04:03:55+0000,-39.30,-46.66,-35.45,-48.77,-55.56,-56.71
2020/07/29 04:04:47+0000,-33.79,-45.58,-35.35,-48.71,-56.05,-56.02
2020/07/29 04:05:39+0000,-40.25,-44.99,-33.82,-48.29,-56.18,-55.95
2020/07/29 04:06:31+0000,-41.46,-46.11,-34.33,-48.39,-55.90,-56.13
2020/07/29 04:07:23+0000,-38.65,-45.67,-34.41,-47.54,-57.17,-55.68
2020/07/29 04:08:15+0000,-41.54,-45.53,-33.84,-48.26,-57.29,-56.76
2020/07/29 04:09:07+0000,-41.28,-46.34,-33.30,-48.20,-56.44,-56.11
2020/07/29 04:09:59+0000,-41.38,-46.57,-33.71,-48.92,-55.88,-55.79
2020/07/29 04:10:51+0000,-37.28,-47.56,-34.04,-48.32,-53.72,-56.10
2020/07/29 04:11:51+0000,-37.15,-48.62,-34.86,-47.61,-54.76,-56.38
2020/07/29 04:12:43+0000,-40.15,-43.68,-35.61,-47.76,-56.54,-56.22
2020/07/29 04:13:35+0000,-38.95,-49.05,-34.91,-47.58,-54.04,-56.68
2020/07/29 04:14:27+0000,-38.78,-45.45,-34.78,-48.02,-53.27,-56.29
2020/07/29 04:15:19+0000,-37.32,-44.08,-34.83,-47.32,-55.32,-55.83
2020/07/29 04:16:11+0000,-40.62,-47.13,-34.03,-46.90,-54.04,-55.80
2020/07/29 04:17:03+0000,-40.09,-42.69,-32.68,-47.50,-53.97,-55.49
2020/07/29 04:17:55+0000,-39.81,-44.42,-34.45,-47.94,-53.75,-56.69
2020/07/29 04:18:48+0000,-37.27,-43.97,-34.77,-47.24,-53.75,-56.18
2020/07/29 04:19:40+0000,-39.78,-45.08,-34.24,-46.96,-55.62,-55.92
2020/07/29 04:20:32+0000,-40.91,-44.55,-34.37,-48.03,-55.19,-56.19
2020/07/29 04:21:32+0000,-41.18,-44.06,-34.50,-47.33,-56.11,-56.39
2020/07/29 04:22:24+0000,-33.72,-43.57,-34.97,-47.75,-56.18,-56.47
2020/07/29 04:23:16+0000,-40.76,-44.68,-35.21,-47.81,-55.75,-56.52
2020/07/29 04:24:08+0000,-41.53,-43.74,-35.08,-47.81,-56.36,-56.11
2020/07/29 04:25:00+0000,-37.82,-44.05,-34.88,-48.35,-56.19,-55.88
2020/07/29 04:25:52+0000,-39.37,-47.35,-34.93,-47.69,-55.67,-55.48
2020/07/29 04:26:44+0000,-34.93,-45.15,-35.12,-47.34,-56.26,-56.47
2020/07/29 04:27:36+0000,-35.88,-46.95,-34.96,-47.25,-56.29,-56.02
2020/07/29 04:28:28+0000,-39.23,-45.03,-34.65,-47.56,-56.73,-56.14
2020/07/29 04:29:20+0000,-40.72,-47.55,-35.34,-47.77,-55.79,-56.05
2020/07/29 04:30:13+0000,-34.53,-45.35,-34.86,-46.73,-55.85,-56.26
2020/07/29 04:31:12+0000,-32.72,-43.92,-35.49,-47.66,-56.47,-55.94
2020/07/29 04:32:04+0000,-34.22,-44.75,-35.18,-48.24,-56.26,-56.54
2020/07/29 04:32:56+0000,-40.60,-46.82,-35.27,-48.73,-56.37,-55.47
2020/07/29 04:33:48+0000,-41.11,-45.67,-35.86,-48.07,-56.01,-55.95
2020/07/29 04:34:40+0000,-32.03,-45.01,-35.13,-47.64,-56.47,-55.89
2020/07/29 04:35:32+0000,-32.51,-45.98,-34.63,-47.92,-56.86,-56.13
2020/07/29 04:36:24+0000,-41.24,-45.84,-35.75,-47.78,-56.20,-55.93
2020/07/29 04:37:17+0000,-40.85,-45.39,-35.83,-47.78,-56.40,-55.60
2020/07/29 04:38:09+0000,-40.91,-44.97,-35.21,-46.65,-56.80,-55.78
2020/07/29 04:39:01+0000,-40.02,-43.64,-35.40,-47.80,-56.12,-55.58
2020/07/29 04:39:53+0000,-41.40,-46.05,-34.31,-45.60,-56.67,-55.73
2020/07/29 04:40:45+0000,-40.67,-44.20,-34.60,-47.31,-56.33,-55.29
2020/07/29 04:41:45+0000,-40.45,-44.76,-35.44,-47.75,-57.15,-55.79
2020/07/29 04:42:37+0000,-39.41,-46.93,-35.37,-47.24,-57.37,-55.65
2020/07/29 04:43:29+0000,-36.09,-46.51,-35.97,-44.97,-56.72,-55.80
2020/07/29 04:44:21+0000,-41.12,-47.11,-35.96,-46.68,-57.04,-55.43
2020/07/29 04:45:13+0000,-41.04,-44.44,-35.33,-48.44,-56.82,-55.60
2020/07/29 04:46:05+0000,-41.46,-44.88,-35.15,-47.46,-56.85,-56.17